Regional Weather Roundup
Issued by NWS

Home | Current Version | Previous Version | Graphics & Text | Print | Product List | Glossary On
Versions: 1 2 3 4 5 6 7 8 9 10 11 12 13 14 15 16 17 18 19 20 21 22 23 24 25 26 27 28 29 30 31 32 33 34 35 36 37 38 39 40 41 42 43 44 45 46 47 48 49 50
543
ASUS43 KLSX 231707
RWRMO

WEATHER SUMMARY FOR MISSOURI
NATIONAL WEATHER SERVICE SPRINGFIELD MO
1200 PM CDT SAT JUL 23 2016

NOTE: "FAIR" INDICATES FEW OR NO CLOUDS BELOW 12,000 FEET WITH NO
       SIGNIFICANT WEATHER AND/OR OBSTRUCTIONS TO VISIBILITY.
       CURRENT SKY AND/OR WEATHER CONDITIONS ARE NOT AVAILABLE FOR
       CHILLICOTHE AND FARMINGTON.

MOZ001>031-035>038-043-044-053-054-231800-
...NORTHERN AND WESTERN MISSOURI...

CITY           SKY/WX    TMP DP  RH WIND       PRES   REMARKS
KANSAS CTY INT CLOUDY    88  75  65 S14       29.92F HX  97
KANSAS C DTWN  CLOUDY    91  70  49 S13       29.91F HX  96
LEE`S SUMMIT   MOSUNNY   90  72  55 SW12      29.95F HX  97
ST JOSEPH      CLOUDY    90  76  63 S10       29.88F HX 101
CHILLICOTHE      N/A     91  78  65 S8        29.92F HX 106
KIRKSVILLE     CLOUDY    91  77  63 S12       29.96R HX 104

$$
MOZ066>068-077>081-088>096-101>105-231800-
...SOUTHWEST MISSOURI...

CITY           SKY/WX    TMP DP  RH WIND       PRES   REMARKS
SPRINGFIELD    SUNNY     94  70  45 SW3       30.00F HX 100
JOPLIN         SUNNY     93  74  53 SW12      29.99F HX 103
BRANSON        MOSUNNY   93  75  55 W6        30.03F HX 104

$$
MOZ032>034-039>042-045>050-055>058-069>072-231800-
...CENTRAL MISSOURI...

CITY           SKY/WX    TMP DP  RH WIND       PRES   REMARKS
COLUMBIA       SUNNY     92  76  59 W10       29.98F HX 104
JEFFERSON CITY SUNNY     93  74  53 SW6       29.95F HX 103
ROLLA          SUNNY     90  77  65 SW6       29.99F HX 103
SEDALIA        CLOUDY    94  76  55 SW8       29.97F HX 106
WHITEMAN AFB   MOSUNNY   93  76  57 SW14      29.94F HX 105
OSAGE BEACH    SUNNY     92  76  59 SW7       29.99F HX 104

$$
MOZ051-052-059>065-231800-
...EAST CENTRAL MISSOURI...

CITY           SKY/WX    TMP DP  RH WIND       PRES   REMARKS
ST LOUIS INTL  MOSUNNY   91  71  51 E8        29.99F HX  97
SPIRIT OF STL  SUNNY     91  74  57 E5        29.97S HX 100
ST CHARLES     SUNNY     88  73  61 E6        29.97F HX  95

$$
MOZ072>076-082>087-097>100-106>115-231800-
...SOUTH CENTRAL AND SOUTHEAST MISSOURI...

CITY           SKY/WX    TMP DP  RH WIND       PRES   REMARKS
CAPE GIRARDEAU MOSUNNY   88  75  65 VRB5      29.97S HX  97
FARMINGTON     SUNNY     90  73  57 VRB3      30.01F HX  98
POPLAR BLUFF   SUNNY     90  74  59 VRB3      29.97F HX  99
WEST PLAINS    SUNNY     91  74  57 SW6       30.03F HX 100

$$



USA.gov is the U.S. government's official web portal to all federal, state and local government web resources and services.